CAPE
0 0 0 0 0 0 0 0 0 0 0 0 0 0 0 0 0 0 0 28 0 1 759 1498 881 516 146 26 27 199 632 792 924 871 627 441 416 273 190 16 0 0 0 0 0 0 0 0 0
0 0 0 0 0 0 0 0 0 0 0 0 0 0 0 0 0 0 0 3 0 61 684 1195 979 850 412 91 18 4 41 86 133 102 92 81 79 8 0 0 0 0 0 0 0 0 0 0 0
0 0 0 0 0 0 0 0 0 0 0 0 0 0 0 0 17 0 2 0 0 126 495 1057 1106 1129 663 229 68 6 0 0 0 0 0 0 0 0 0 0 0 0 0 0 0 0 0 0 0
0 0 0 0 0 0 0 0 0 0 0 0 0 0 0 0 11 66 3 0 0 76 292 913 950 1331 835 479 142 63 0 0 0 0 0 0 0 0 0 0 0 0 0 0 0 0 0 0 0
0 0 0 0 0 0 0 0 0 0 0 0 0 0 0 0 87 45 17 0 0 41 189 834 922 1306 1019 698 333 187 59 16 0 0 0 0 0 0 0 0 0 0 0 0 0 0 0 0 0
0 0 0 0 0 0 0 0 0 0 0 0 0 0 0 0 46 36 6 0 0 72 225 580 780 1124 1098 849 631 326 156 67 7 0 0 0 0 0 0 0 0 0 0 0 0 0 0 0 0
0 0 0 0 0 0 0 0 0 0 0 0 0 0 0 0 14 13 7 0 0 53 123 619 653 893 995 886 793 598 338 194 67 26 0 0 0 0 0 0 0 0 0 0 0 0 0 0 0
0 0 0 0 0 0 0 0 0 0 0 0 0 0 0 0 45 23 32 0 0 4 24 320 619 674 843 832 832 687 564 446 296 172 108 46 23 0 0 0 0 0 0 0 0 0 0 0 0
0 0 0 0 0 0 0 0 0 0 0 0 0 0 0 0 98 34 34 6 0 0 48 169 338 495 563 612 902 767 644 695 646 521 410 263 248 228 98 0 0 0 0 0 0 0 0 0 0
0 0 0 0 0 0 0 0 0 0 0 0 0 0 0 0 1 20 38 7 0 0 5 116 310 479 555 536 828 873 883 903 909 858 872 665 514 471 241 168 14 0 0 0 0 10 18 14 1
0 0 0 0 0 0 0 0 0 0 0 0 0 0 0 0 0 0 1 44 0 0 0 89 243 374 361 245 493 720 839 916 1040 990 1019 851 693 422 320 218 185 109 49 4 19 23 4 2 15
0 0 0 0 0 0 0 0 0 0 0 0 0 0 0 0 0 0 0 6 0 0 0 24 196 189 211 238 191 330 417 461 371 452 623 458 242 237 177 156 99 163 24 21 31 19 16 18 31
0 0 0 0 0 0 0 0 0 0 0 0 0 0 0 0 0 0 0 0 0 2 0 0 0 4 70 105 54 116 174 109 89 199 332 353 181 124 116 51 21 4 19 9 16 9 29 18 30
0 0 0 0 0 0 0 0 0 0 0 0 0 0 0 0 0 0 0 0 0 0 0 0 0 0 18 4 8 4 13 3 64 73 74 122 82 100 20 0 0 0 0 6 8 0 2 8 0
0 0 0 0 0 0 0 0 0 0 0 0 0 0 0 0 0 0 0 0 0 0 0 1 15 3 1 5 17 0 0 0 0 0 0 0 1 2 0 0 0 0 1 10 5 0 0 0 9
0 0 0 0 0 0 0 0 0 0 0 0 0 0 0 0 0 0 0 0 0 0 0 0 27 77 9 0 0 0 0 0 0 0 0 0 0 0 0 0 0 0 0 0 7 0 0 0 15
0 0 0 0 0 0 0 0 0 0 0 0 0 0 0 0 0 0 0 0 0 0 0 0 0 216 222 33 0 0 0 0 0 0 0 0 0 0 0 0 0 0 0 0 1 25 5 48 69
0 0 0 0 0 0 0 0 0 0 0 0 0 0 0 0 0 0 0 0 0 0 0 0 0 0 40 476 166 14 0 0 0 0 0 0 0 0 0 0 0 0 4 12 12 65 147 132 195
0 0 0 0 0 0 0 0 0 0 0 0 0 0 0 0 0 0 0 0 0 0 0 0 0 0 0 412 496 323 145 46 9 0 0 1 3 0 0 0 0 2 9 85 171 216 269 225 132
0 0 0 0 0 0 0 0 0 0 0 0 0 0 0 0 0 0 0 0 0 0 0 0 0 0 0 57 370 588 549 474 334 229 136 72 4 1 69 8 0 37 70 363 370 258 348 332 177
0 0 0 0 0 0 0 0 0 0 0 0 0 0 0 0 0 0 0 0 0 0 0 0 0 0 0 0 76 559 645 677 617 574 514 377 117 179 91 1 35 146 406 541 525 431 427 576 270
0 0 0 0 0 0 0 0 0 0 0 0 0 0 0 0 0 0 0 0 0 0 0 0 0 0 0 0 0 0 73 349 489 854 888 761 396 477 382 121 160 416 675 665 715 539 517 555 783
0 0 0 0 0 0 0 0 0 0 0 0 0 0 0 0 0 0 0 0 0 0 0 0 0 0 0 0 0 0 5 228 606 1046 1223 1114 1004 906 641 516 590 852 892 945 728 505 494 581 906
0 0 0 0 0 0 0 0 0 0 0 0 0 0 0 0 0 0 0 0 0 0 0 0 0 0 0 0 0 0 0 0 76 530 636 952 1013 1068 1133 1226 1345 1100 996 971 654 662 677 714 877
0 0 0 0 0 0 0 0 0 0 0 0 0 0 0 0 0 0 0 0 0 0 0 0 0 0 0 0 0 0 0 0 0 184 231 559 759 978 1057 1311 1159 1087 1015 588 657 647 823 838 968
0 0 0 0 0 0 0 0 0 0 0 0 0 0 0 0 0 0 0 0 0 0 0 0 0 0 0 0 0 0 0 0 0 38 203 257 341 574 935 1060 985 609 533 534 710 847 1069 1079 893
0 0 0 0 0 0 0 0 0 0 0 0 0 0 0 0 0 0 0 0 0 0 0 0 0 0 0 0 0 0 0 0 0 5 172 194 287 536 686 692 413 531 406 643 1028 1318 1422 1168 959
0 0 0 0 0 0 0 0 0 0 0 0 0 0 0 0 0 0 0 0 0 0 0 0 0 0 0 0 0 0 0 0 0 4 68 122 292 536 613 455 611 344 507 1267 1517 1604 1443 1272 835
0 0 0 0 0 0 0 0 0 0 0 0 0 0 0 0 0 0 0 0 0 0 0 0 0 0 0 3 25 15 0 0 0 0 0 72 354 532 531 463 371 395 862 1651 1655 1569 1311 1049 567
0 0 5 6 1 0 0 0 0 0 0 0 0 0 0 0 0 0 0 0 0 0 0 0 0 0 0 0 0 72 2 0 0 0 0 156 345 553 534 572 451 716 1474 1642 1577 1434 1105 775 546
CIN
0 0 0 0 0 0 0 0 0 0 0 0 0 0 0 0 0 0 -27 -679 0 -56 -599 -388 -456 -489 -578 -700 -646 -435 -297 -257 -224 -225 -243 -257 -262 -267 -271 -264 0 0 0 0 0 0 0 0 0
0 0 0 0 0 0 0 0 0 0 0 0 0 0 0 0 0 0 0 -391 0 -683 -618 -464 -454 -442 -523 -644 -727 -227 -547 -442 -391 -387 -367 -362 -342 -216 0 0 0 0 0 0 0 0 0 0 0
0 0 0 0 0 0 0 0 0 0 0 0 0 0 0 0 -209 0 -236 0 0 -719 -619 -505 -451 -383 -459 -567 -668 -291 0 0 0 0 0 0 0 0 0 0 0 0 0 0 0 0 0 0 0
0 0 0 0 0 0 0 0 0 0 0 0 0 0 0 -9 -464 -431 -210 0 0 -690 -621 -550 -483 -347 -422 -486 -592 -648 0 0 0 0 0 0 0 0 0 0 0 0 0 0 0 0 0 0 0
0 0 0 0 0 0 0 0 0 0 0 0 0 0 0 0 -556 -707 -675 0 0 -687 -626 -553 -483 -367 -378 -431 -503 -547 -599 -612 0 0 0 0 0 0 0 0 0 0 0 0 0 0 0 0 0
0 0 0 0 0 0 0 0 0 0 0 0 0 0 0 0 -598 -737 -532 0 0 -693 -638 -558 -502 -396 -356 -398 -444 -505 -533 -554 -348 0 0 0 0 0 0 0 0 0 0 0 0 0 0 0 0
0 0 0 0 0 0 0 0 0 0 0 0 0 0 0 0 -709 -854 -863 0 0 -736 -691 -557 -524 -459 -406 -400 -408 -447 -493 -513 -532 -478 0 0 0 0 0 0 0 0 0 0 0 0 0 0 0
0 0 0 0 0 0 0 0 0 0 0 0 0 0 0 0 -628 -796 -821 -3 0 -342 -686 -586 -529 -468 -409 -392 -418 -440 -442 -450 -462 -490 -500 -521 -509 -7 0 0 0 0 0 0 0 0 0 0 0
0 0 0 0 0 0 0 0 0 0 0 0 0 0 0 0 -481 -607 -641 -697 0 0 -715 -594 -546 -509 -460 -415 -381 -427 -434 -406 -401 -416 -448 -460 -403 -420 -489 0 0 0 0 0 0 0 0 0 0
0 0 0 0 0 0 0 0 0 0 0 0 0 0 0 0 -24 -474 -483 -512 0 0 -226 -672 -573 -526 -480 -457 -381 -375 -371 -372 -351 -352 -350 -377 -359 -355 -406 -458 -473 0 0 0 0 -503 -511 -438 -126
0 0 0 0 0 0 0 0 0 0 0 0 0 0 0 0 0 0 -45 -433 0 0 -77 -751 -697 -615 -564 -538 -473 -394 -401 -382 -359 -365 -354 -377 -375 -401 -427 -471 -481 -534 -585 -429 -586 -538 -490 -178 -461
0 0 0 0 0 0 0 0 0 0 0 0 0 0 0 0 0 0 0 -337 0 0 0 -695 -703 -694 -644 -590 -617 -514 -486 -491 -487 -499 -478 -486 -528 -519 -521 -543 -526 -506 -594 -581 -579 -544 -547 -508 -538
0 0 0 0 0 0 0 0 0 0 0 0 0 0 0 0 0 0 0 0 0 -276 -52 0 0 -407 -661 -677 -670 -642 -600 -594 -551 -558 -545 -534 -553 -576 -608 -617 -498 -377 -614 -658 -644 -611 -555 -543 -543
0 0 0 0 0 0 0 0 0 0 0 0 0 0 0 0 0 0 0 0 0 0 0 0 0 0 -627 -238 -701 -456 -752 -279 -683 -664 -677 -676 -652 -641 -692 0 0 0 0 -640 -677 0 -217 -617 0
0 0 0 0 0 0 0 0 0 0 0 0 0 0 0 0 0 0 0 0 0 0 0 -34 -423 -549 -94 -595 -670 -60 0 0 0 0 -59 -59 -59 -791 0 0 0 0 -638 -649 -702 0 -7 0 -604
0 0 0 0 0 0 0 0 0 0 0 0 0 0 0 0 0 0 0 0 0 0 0 0 -324 -402 -483 0 0 0 0 0 0 0 0 0 0 0 0 0 0 0 0 0 -627 0 0 0 -523
0 0 0 0 0 0 0 0 0 0 0 0 0 0 0 0 0 0 0 0 0 0 0 0 0 -348 -371 -530 -203 0 0 0 0 0 0 0 0 0 0 0 0 0 0 0 -260 -492 -263 -460 -427
0 0 0 0 0 0 0 0 0 0 0 0 0 0 0 0 0 0 0 0 0 0 0 0 0 0 -310 -365 -495 -690 0 0 0 0 0 0 0 0 0 0 0 0 -409 -373 -441 -407 -450 -415 -333
0 0 0 0 0 0 0 0 0 0 0 0 0 0 0 0 0 0 0 0 0 0 0 0 0 0 0 -329 -379 -420 -492 -645 -716 0 0 -768 -413 0 0 0 0 -185 -313 -295 -387 -354 -369 -396 -414
0 0 0 0 0 0 0 0 0 0 0 0 0 0 0 0 0 0 0 0 0 0 0 0 0 0 0 -529 -432 -354 -334 -391 -476 -540 -645 -717 -433 -81 -484 -244 0 -426 -366 -338 -355 -347 -322 -351 -394
0 0 0 0 0 0 0 0 0 0 0 0 0 0 0 0 0 0 0 0 0 0 0 0 0 0 0 0 -342 -393 -359 -384 -381 -423 -528 -612 -499 -394 -415 -85 -538 -384 -331 -293 -339 -328 -327 -246 -355
0 0 0 0 0 0 0 0 0 0 0 0 0 0 0 0 0 0 0 0 0 0 0 0 0 0 0 0 0 0 -432 -331 -301 -332 -365 -411 -384 -371 -408 -377 -427 -328 -326 -334 -337 -348 -316 -276 -180
0 0 0 0 0 0 0 0 0 0 0 0 0 0 0 0 0 0 0 0 0 0 0 0 0 0 0 0 0 0 -429 -382 -329 -287 -298 -303 -314 -338 -409 -310 -317 -329 -324 -343 -353 -368 -358 -304 -160
0 0 0 0 0 0 0 0 0 0 0 0 0 0 0 0 0 0 0 0 0 0 0 0 0 0 0 0 0 0 0 0 -379 -351 -351 -315 -343 -338 -296 -285 -310 -341 -346 -351 -351 -348 -321 -260 -163
0 0 0 0 0 0 0 0 0 0 0 0 0 0 0 0 0 0 0 0 0 0 0 0 0 0 0 0 0 0 0 0 0 -375 -389 -366 -377 -391 -366 -326 -340 -339 -357 -355 -361 -340 -267 -205 -112
0 0 0 0 0 0 0 0 0 0 0 0 0 0 0 0 0 0 0 0 0 0 0 0 0 0 0 0 0 0 0 0 0 -440 -360 -351 -384 -383 -310 -297 -347 -342 -365 -349 -340 -266 -178 -128 -102
0 0 0 0 0 0 0 0 0 0 0 0 0 0 0 0 0 0 0 0 0 0 0 0 0 0 0 0 0 0 0 0 0 -301 -397 -327 -382 -341 -299 -318 -312 -352 -281 -306 -254 -153 -108 -88 -76
0 0 0 0 0 0 0 0 0 0 0 0 0 0 0 0 0 0 0 0 0 0 0 0 0 0 0 0 0 0 0 0 0 -287 -403 -368 -388 -337 -314 -308 -288 -261 -259 -216 -144 -70 -63 -48 -77
0 0 0 -1 0 0 0 0 0 0 0 0 0 0 0 0 0 0 0 0 0 0 0 0 0 0 0 -1 -148 -220 0 0 0 0 0 -383 -404 -347 -282 -257 -216 -228 -213 -138 -86 -60 -43 -60 -107
0 -1 -2 -1 -2 0 0 0 0 0 0 0 0 0 0 0 0 0 0 0 0 0 0 0 0 0 0 0 0 -302 -60 0 0 0 0 -435 -379 -316 -255 -230 -205 -198 -156 -102 -74 -47 -49 -76 -90
Wind_Speed
23 22 19 18 23 23 27 23 19 16 16 16 21 20 21 24 16 17 17 13 14 24 26 26 27 27 28 28 29 30 31 31 30 30 30 31 30 29 28 26 26 25 24 24 23 23 23 23 23
23 19 20 18 27 31 28 24 22 20 22 24 22 18 22 24 13 33 23 5 17 26 25 25 25 25 27 28 29 30 30 30 30 30 30 29 29 28 27 26 24 23 23 22 22 22 22 22 22
19 19 23 27 28 34 25 22 22 20 25 20 21 21 18 19 20 22 19 4 14 23 24 24 25 24 25 26 28 29 30 30 30 29 28 27 27 26 25 24 23 22 21 21 20 20 20 20 20
19 20 22 31 35 27 26 23 21 25 22 21 22 24 21 19 26 24 20 2 16 22 24 23 24 25 26 27 27 27 28 29 29 28 26 25 25 24 23 22 21 20 20 19 18 18 18 18 18
20 22 32 34 34 29 27 29 28 30 27 24 23 25 22 25 26 23 12 5 16 18 22 22 23 24 24 24 25 26 27 27 28 26 25 24 23 22 21 20 19 19 18 18 17 16 16 16 15
26 25 36 40 39 29 25 27 26 26 26 25 24 24 18 24 23 19 11 8 14 15 17 22 22 21 21 21 22 25 25 26 26 26 24 23 22 21 19 18 18 17 16 16 15 15 14 14 12
30 33 41 39 40 34 30 24 27 25 27 22 23 22 21 25 22 17 13 10 12 14 14 18 22 22 20 20 20 22 22 23 24 23 22 22 21 19 17 17 16 15 14 13 13 13 12 12 11
28 32 41 39 43 41 28 25 25 25 23 22 22 21 23 26 21 16 13 13 11 11 13 16 18 18 19 18 17 20 20 20 20 20 20 19 18 16 15 14 13 12 12 11 10 10 10 10 10
25 40 47 43 38 37 25 28 27 28 30 26 22 24 26 24 19 16 14 16 14 12 11 12 14 15 16 16 16 19 18 18 19 18 17 16 15 14 12 11 10 10 10 9 8 8 8 9 8
30 43 45 34 34 36 33 32 32 31 34 33 29 26 26 24 21 19 17 20 22 18 13 12 13 12 12 11 10 19 18 17 18 16 15 14 14 12 10 8 8 7 7 7 6 6 7 8 8
31 44 37 34 36 36 39 39 32 34 41 32 33 33 31 27 25 22 20 21 26 24 21 18 17 18 16 13 11 9 11 10 12 15 12 10 10 9 8 6 6 5 5 5 5 4 5 6 8
32 34 37 39 39 36 37 37 40 40 44 36 35 36 30 29 28 26 24 21 18 23 27 28 26 25 29 22 17 14 10 9 8 8 8 6 6 6 4 3 4 4 4 4 5 5 6 7 8
29 30 31 33 38 40 39 45 47 47 44 43 36 34 35 31 28 26 25 24 20 22 24 30 37 33 32 33 27 18 15 18 16 13 7 5 4 3 1 3 4 4 4 4 5 6 8 9 10
20 25 31 34 37 36 39 46 40 42 34 37 40 39 32 28 28 27 26 25 26 24 26 28 28 42 33 36 32 30 22 20 27 29 21 12 8 11 8 9 10 9 6 5 6 7 9 10 11
24 29 31 32 34 38 33 48 49 34 35 42 39 37 33 28 27 27 25 24 26 29 28 24 28 39 42 40 44 38 26 28 31 29 22 16 19 19 16 15 15 14 11 9 7 9 9 11 12
22 24 28 22 25 28 30 46 26 24 30 41 39 35 33 31 28 27 26 27 26 26 30 27 27 32 43 42 25 34 25 24 29 28 21 18 20 21 22 22 20 21 18 13 9 10 10 12 13
20 24 24 23 20 23 26 35 25 28 31 34 36 35 34 34 31 28 28 29 28 26 26 32 31 35 36 35 36 33 31 34 31 32 25 21 22 23 21 22 24 26 25 19 13 15 10 14 14
22 23 23 25 24 26 30 34 35 33 33 35 35 38 36 35 33 32 32 31 32 31 27 23 32 38 33 31 29 31 32 32 32 28 26 25 24 22 24 27 22 25 22 19 18 10 12 14 14
23 24 25 26 25 31 34 38 38 38 37 37 37 38 38 37 36 35 35 35 34 33 33 30 27 27 32 35 32 29 29 32 31 31 28 26 21 20 21 15 22 21 11 14 9 13 13 15 15
21 25 28 29 27 32 37 43 42 39 37 36 34 31 35 35 37 40 38 36 37 37 37 36 34 32 31 30 30 30 29 29 30 31 28 23 22 19 15 22 26 20 13 11 11 11 16 16 14
23 26 27 30 31 33 37 40 31 27 33 26 25 29 29 33 35 36 37 39 39 40 40 40 39 37 35 34 34 33 33 32 30 29 27 25 23 21 23 16 13 14 12 12 11 12 14 20 15
28 21 24 28 32 37 31 43 38 33 26 26 25 28 29 32 32 32 32 35 37 41 41 42 42 42 40 36 37 37 37 36 34 31 28 24 23 25 25 20 16 15 12 13 13 13 16 18 17
23 22 26 29 36 38 35 37 31 22 26 23 25 24 28 30 28 30 32 34 36 37 40 43 43 44 42 41 40 39 40 37 35 32 31 27 25 26 25 22 17 15 15 15 15 15 17 17 14
21 25 31 30 29 35 27 29 30 25 24 24 32 28 31 26 27 30 32 34 36 37 39 41 44 47 47 46 44 42 42 39 37 35 34 29 28 25 25 20 18 18 16 15 15 19 19 15 14
23 31 35 33 30 33 23 34 34 24 25 31 33 33 31 29 31 34 36 37 37 38 39 40 42 45 46 49 48 46 45 43 41 41 37 34 31 27 26 20 20 19 17 17 19 21 20 14 14
27 27 31 36 34 34 29 34 27 22 30 30 28 27 29 30 33 36 36 37 38 39 40 42 44 45 46 48 50 48 46 44 45 42 38 35 33 32 27 22 20 19 18 19 20 20 16 14 13
25 25 23 31 33 36 31 32 31 24 23 26 25 27 30 33 35 36 36 37 38 38 40 43 44 45 46 48 49 50 47 44 40 41 35 35 32 28 24 23 21 20 20 19 19 17 12 10 11
20 17 24 23 32 35 32 37 31 29 29 26 32 33 34 38 39 37 36 36 38 40 41 41 42 44 46 47 47 49 47 43 37 35 33 31 30 28 25 24 23 21 20 18 16 13 11 9 8
20 23 21 22 24 30 35 30 21 24 27 31 31 34 40 42 39 37 37 37 38 41 42 43 43 44 44 45 47 48 49 44 38 35 34 32 27 26 24 23 21 20 19 15 14 12 8 7 6
21 24 19 24 25 24 29 35 30 28 25 30 40 42 37 36 38 37 39 39 39 41 42 44 44 45 45 46 47 48 48 45 39 34 32 28 27 23 21 20 21 19 15 13 11 9 7 6 5
Wind_Direction
304 296 290 287 270 266 260 265 275 283 285 287 288 284 282 283 296 301 307 131 127 137 136 136 135 132 128 124 122 120 122 120 118 115 115 116 113 110 109 104 99 97 94 89 82 77 69 68 66
302 299 289 289 265 257 260 267 269 279 286 286 287 290 285 285 286 250 286 70 137 140 136 136 137 134 133 129 128 125 124 123 121 119 117 116 115 113 110 107 101 97 93 89 84 78 72 71 67
307 298 277 266 264 255 263 270 270 281 286 287 288 292 290 292 299 280 289 132 145 141 139 138 139 137 135 133 131 129 128 127 125 121 118 117 117 115 112 111 104 98 94 89 85 81 76 72 68
298 291 280 262 258 267 263 269 270 280 290 286 289 282 290 296 284 278 278 162 149 145 142 140 141 141 140 139 134 132 129 130 128 125 121 120 119 118 114 109 105 100 99 94 88 86 79 74 71
293 283 265 262 262 266 265 262 269 274 282 283 288 285 283 295 284 281 276 184 157 149 143 143 144 144 144 141 138 135 133 133 132 129 125 124 122 120 116 112 110 105 102 100 94 89 81 75 71
276 276 263 258 259 265 269 265 272 275 276 280 285 284 286 302 296 289 268 190 161 155 146 144 147 146 146 144 142 140 138 137 136 134 131 131 130 124 118 117 117 111 108 102 97 89 86 78 74
271 265 260 261 258 262 267 267 272 272 273 278 288 279 288 305 299 291 266 229 183 163 155 149 150 151 150 148 146 144 143 141 140 139 136 137 135 130 122 123 120 115 112 105 99 90 82 76 70
270 270 260 261 258 259 272 269 267 272 272 281 291 279 286 300 300 294 269 235 207 188 168 159 155 156 156 155 152 150 147 145 143 142 140 140 140 135 123 121 121 119 111 106 100 93 83 70 61
270 261 257 258 262 263 270 271 268 270 271 275 280 283 287 298 296 293 272 239 231 212 192 181 172 169 164 160 160 155 153 151 151 147 143 142 143 140 125 123 120 122 113 108 103 92 76 65 54
263 258 259 265 266 263 263 270 270 271 266 268 272 282 287 293 289 287 276 244 239 232 217 207 209 198 188 185 179 162 160 159 160 157 152 149 151 145 131 114 119 117 114 102 101 84 63 54 42
266 260 264 266 263 265 264 267 271 268 260 267 269 279 283 285 282 280 274 255 245 242 240 233 230 233 227 220 226 201 174 172 166 165 159 151 149 145 138 99 104 104 98 84 76 66 48 40 32
271 267 264 264 264 267 267 266 262 262 259 269 272 275 277 283 279 275 268 264 262 249 246 243 241 240 239 242 241 238 224 215 203 187 176 168 158 158 142 74 69 57 54 46 42 34 26 17 18
274 271 270 269 266 266 269 262 259 260 260 265 269 270 273 277 279 276 271 268 270 264 253 246 241 242 242 242 248 247 244 253 255 260 226 220 200 203 205 347 0 4 12 13 14 10 6 3 5
289 282 274 273 268 270 267 263 267 263 261 261 265 268 273 274 276 276 274 270 263 269 264 257 246 241 245 245 248 253 256 260 261 259 269 267 278 297 309 322 330 333 339 349 359 358 356 355 357
287 281 278 274 271 267 272 259 259 270 268 260 264 265 267 272 274 272 275 275 272 264 268 271 257 248 244 246 245 251 259 259 260 264 271 276 279 290 299 309 318 323 329 331 339 345 348 348 352
290 286 277 283 280 275 265 256 278 283 268 259 262 265 266 267 271 274 275 272 273 277 271 263 266 257 245 246 224 254 257 258 264 268 273 273 279 284 291 297 305 313 322 323 321 338 341 342 346
293 281 281 280 290 284 271 266 276 279 275 268 261 265 267 267 269 274 276 277 278 280 283 264 268 258 253 256 258 257 259 262 265 268 272 273 277 282 287 293 303 311 315 315 316 324 329 338 342
288 287 286 282 286 285 277 272 274 280 278 271 268 267 267 266 268 273 275 276 276 275 278 282 268 258 266 267 263 263 264 262 264 267 269 272 276 283 286 289 300 310 318 309 311 313 331 337 340
292 289 287 288 291 287 279 277 277 278 276 272 271 268 266 270 269 274 276 275 274 275 275 278 280 282 269 261 263 266 264 265 263 264 267 268 270 275 284 297 297 306 295 297 293 312 324 333 339
295 290 288 290 291 290 284 278 278 277 277 275 275 273 272 273 274 274 274 276 275 274 275 274 276 278 277 274 271 270 270 271 270 271 265 261 261 247 252 294 293 284 285 295 294 302 325 331 335
298 292 291 289 294 293 290 282 284 283 286 284 280 279 279 281 281 281 279 276 277 275 276 275 274 276 276 277 274 270 270 272 273 272 268 257 253 238 273 287 282 278 267 291 289 301 312 324 329
294 303 298 296 293 285 299 274 282 286 288 281 287 285 284 283 287 287 288 286 282 277 276 276 275 274 275 276 273 270 268 269 269 272 273 264 250 256 273 269 273 261 269 284 296 305 312 321 321
303 308 301 298 292 289 287 278 282 292 287 287 293 294 293 291 289 290 291 289 288 286 281 278 277 273 273 274 272 271 269 270 272 270 270 267 262 261 267 275 263 259 271 287 299 308 309 310 314
314 305 301 301 294 283 288 282 282 292 291 287 292 295 298 294 294 295 295 294 290 289 287 284 280 274 271 271 271 271 271 270 268 267 269 267 265 265 262 262 262 267 276 287 298 306 307 305 306
310 302 293 289 285 282 293 285 284 293 298 293 293 294 297 297 298 296 296 294 294 293 292 288 282 276 274 272 272 271 271 270 265 263 266 267 266 266 265 261 266 269 278 293 301 304 304 301 297
306 302 289 282 281 285 291 282 294 306 306 302 300 303 304 304 303 299 298 297 296 295 294 290 284 278 276 274 271 270 269 268 266 264 261 262 263 269 271 262 261 270 284 296 301 303 302 303 295
308 299 302 287 287 284 285 290 298 307 312 307 307 309 310 310 307 304 303 299 298 299 297 292 285 280 280 276 272 270 269 268 267 263 259 262 264 267 268 262 261 271 287 295 297 299 299 301 295
300 307 294 288 281 281 287 288 291 304 306 309 310 308 307 311 309 307 305 304 301 299 298 298 289 281 281 278 275 270 267 266 266 261 256 259 262 264 264 260 263 276 286 290 293 295 301 296 290
302 291 287 288 287 287 288 294 313 313 313 312 315 315 312 310 311 308 306 306 303 302 299 297 291 284 282 280 276 271 265 262 262 261 256 256 261 262 257 255 265 276 281 283 285 290 288 277 274
295 286 278 278 286 290 295 291 302 308 318 319 314 313 318 315 312 308 304 304 304 303 301 298 292 285 283 280 277 271 264 258 258 257 254 254 258 254 248 255 267 272 274 274 275 273 273 256 259